Time,TemperatureF,DewpointF,PressureIn,WindDirection,WindDirectionDegrees,WindSpeedMPH,WindSpeedGustMPH,Humidity,HourlyPrecipIn,Conditions,Clouds,dailyrainin,SoftwareType,DateUTC
2013-04-12 00:02:00,5.0,-1.0,30.18,West,276,0.0,0.0,76,0.00,,,0.00,,2013-04-12 08:02:00,
2013-04-12 00:11:00,5.0,-1.0,30.18,West,276,0.0,0.0,76,0.00,,,0.00,,2013-04-12 08:11:00,
2013-04-12 00:22:00,4.0,-2.0,30.18,West,276,0.0,0.0,76,0.00,,,0.00,,2013-04-12 08:22:00,
2013-04-12 00:32:00,4.0,-2.0,30.18,West,276,0.0,0.0,77,0.00,,,0.00,,2013-04-12 08:32:00,
2013-04-12 00:42:00,4.0,-2.0,30.18,West,276,0.0,0.0,77,0.00,,,0.00,,2013-04-12 08:42:00,
2013-04-12 00:52:00,3.0,-3.0,30.19,West,276,0.0,0.0,77,0.00,,,0.00,,2013-04-12 08:52:00,
2013-04-12 01:01:00,3.0,-2.0,30.18,West,276,0.0,0.0,79,0.00,,,0.00,,2013-04-12 09:01:00,
2013-04-12 01:11:00,3.0,-2.0,30.18,West,276,0.0,0.0,79,0.00,,,0.00,,2013-04-12 09:11:00,
2013-04-12 01:22:00,2.0,-3.0,30.18,West,276,0.0,1.0,79,0.00,,,0.00,,2013-04-12 09:22:00,
2013-04-12 01:32:00,1.0,-4.0,30.19,West,276,0.0,1.0,79,0.00,,,0.00,,2013-04-12 09:32:00,
2013-04-12 01:53:00,0.0,-5.0,30.19,West,276,0.0,0.0,80,0.00,,,0.00,,2013-04-12 09:53:00,
2013-04-12 02:02:00,0.0,-5.0,30.19,West,276,0.0,0.0,80,0.00,,,0.00,,2013-04-12 10:02:00,
2013-04-12 02:12:00,0.0,-5.0,30.19,West,276,0.0,0.0,80,0.00,,,0.00,,2013-04-12 10:12:00,
2013-04-12 02:22:00,0.0,-4.0,30.20,West,276,0.0,0.0,81,0.00,,,0.00,,2013-04-12 10:22:00,
2013-04-12 02:33:00,0.0,-4.0,30.20,West,276,0.0,1.0,82,0.00,,,0.00,,2013-04-12 10:33:00,
2013-04-12 02:42:00,0.0,-4.0,30.20,West,276,0.0,1.0,82,0.00,,,0.00,,2013-04-12 10:42:00,
2013-04-12 02:52:00,-1.0,-5.0,30.21,West,276,0.0,0.0,81,0.00,,,0.00,,2013-04-12 10:52:00,
2013-04-12 03:02:00,-1.0,-5.0,30.21,West,276,0.0,0.0,81,0.00,,,0.00,,2013-04-12 11:02:00,
2013-04-12 03:12:00,-1.0,-5.0,30.21,West,276,0.0,0.0,81,0.00,,,0.00,,2013-04-12 11:12:00,
2013-04-12 03:22:00,-2.0,-6.0,30.21,West,276,0.0,0.0,82,0.00,,,0.00,,2013-04-12 11:22:00,
2013-04-12 03:32:00,-3.0,-7.0,30.21,West,276,0.0,0.0,82,0.00,,,0.00,,2013-04-12 11:32:00,
2013-04-12 03:42:00,-3.0,-7.0,30.21,West,276,0.0,0.0,82,0.00,,,0.00,,2013-04-12 11:42:00,
2013-04-12 03:52:00,-3.0,-7.0,30.22,West,276,0.0,0.0,82,0.00,,,0.00,,2013-04-12 11:52:00,
2013-04-12 04:02:00,-4.0,-8.0,30.22,West,276,0.0,0.0,82,0.00,,,0.00,,2013-04-12 12:02:00,
2013-04-12 04:12:00,-4.0,-8.0,30.22,West,276,0.0,0.0,82,0.00,,,0.00,,2013-04-12 12:12:00,
2013-04-12 04:22:00,-4.0,-8.0,30.22,West,276,0.0,0.0,83,0.00,,,0.00,,2013-04-12 12:22:00,
2013-04-12 04:32:00,-5.0,-9.0,30.22,West,276,0.0,0.0,83,0.00,,,0.00,,2013-04-12 12:32:00,
2013-04-12 04:42:00,-5.0,-9.0,30.22,West,276,0.0,0.0,83,0.00,,,0.00,,2013-04-12 12:42:00,
2013-04-12 04:53:00,-5.0,-9.0,30.22,West,276,0.0,0.0,83,0.00,,,0.00,,2013-04-12 12:53:00,
2013-04-12 05:02:00,-5.0,-9.0,30.23,West,276,0.0,0.0,83,0.00,,,0.00,,2013-04-12 13:02:00,
2013-04-12 05:12:00,-5.0,-9.0,30.23,West,276,0.0,0.0,83,0.00,,,0.00,,2013-04-12 13:12:00,
2013-04-12 05:22:00,-6.0,-10.0,30.23,West,276,0.0,1.0,83,0.00,,,0.00,,2013-04-12 13:22:00,
2013-04-12 05:32:00,-6.0,-10.0,30.23,West,276,0.0,1.0,84,0.00,,,0.00,,2013-04-12 13:32:00,
2013-04-12 05:42:00,-6.0,-10.0,30.23,West,276,0.0,1.0,84,0.00,,,0.00,,2013-04-12 13:42:00,
2013-04-12 05:53:00,-6.0,-10.0,30.24,West,276,0.0,0.0,83,0.00,,,0.00,,2013-04-12 13:53:00,
2013-04-12 06:02:00,-7.0,-11.0,30.24,West,276,0.0,0.0,84,0.00,,,0.00,,2013-04-12 14:02:00,
2013-04-12 06:12:00,-7.0,-11.0,30.24,West,276,0.0,0.0,84,0.00,,,0.00,,2013-04-12 14:12:00,
2013-04-12 06:22:00,-6.0,-9.0,30.24,West,276,0.0,0.0,85,0.00,,,0.00,,2013-04-12 14:22:00,
2013-04-12 06:32:00,-6.0,-10.0,30.24,West,276,0.0,0.0,84,0.00,,,0.00,,2013-04-12 14:32:00,
2013-04-12 06:42:00,-6.0,-10.0,30.24,West,276,0.0,0.0,84,0.00,,,0.00,,2013-04-12 14:42:00,
2013-04-12 06:53:00,-7.0,-11.0,30.24,West,276,0.0,0.0,82,0.00,,,0.00,,2013-04-12 14:53:00,
2013-04-12 07:02:00,-8.0,-12.0,30.25,West,276,0.0,0.0,82,0.00,,,0.00,,2013-04-12 15:02:00,
2013-04-12 07:12:00,-8.0,-12.0,30.25,West,276,0.0,0.0,82,0.00,,,0.00,,2013-04-12 15:12:00,
2013-04-12 07:22:00,-8.0,-12.0,30.25,West,276,0.0,0.0,83,0.00,,,0.00,,2013-04-12 15:22:00,
2013-04-12 07:33:00,-9.0,-13.0,30.26,West,276,0.0,0.0,82,0.00,,,0.00,,2013-04-12 15:33:00,
2013-04-12 07:43:00,-9.0,-13.0,30.26,West,276,0.0,0.0,82,0.00,,,0.00,,2013-04-12 15:43:00,
2013-04-12 07:53:00,-8.0,-12.0,30.26,West,276,0.0,0.0,83,0.00,,,0.00,,2013-04-12 15:53:00,
2013-04-12 08:03:00,-8.0,-12.0,30.26,West,276,0.0,1.0,82,0.00,,,0.00,,2013-04-12 16:03:00,
2013-04-12 08:12:00,-8.0,-12.0,30.26,West,276,0.0,1.0,82,0.00,,,0.00,,2013-04-12 16:12:00,
2013-04-12 08:22:00,-7.0,-11.0,30.26,West,276,0.0,0.0,83,0.00,,,0.00,,2013-04-12 16:22:00,
2013-04-12 08:32:00,-7.0,-11.0,30.26,West,276,0.0,0.0,83,0.00,,,0.00,,2013-04-12 16:32:00,
2013-04-12 08:42:00,-7.0,-11.0,30.26,West,276,0.0,0.0,83,0.00,,,0.00,,2013-04-12 16:42:00,
2013-04-12 08:53:00,-5.0,-9.0,30.26,West,276,0.0,0.0,84,0.00,,,0.00,,2013-04-12 16:53:00,
2013-04-12 09:02:00,-3.0,-7.0,30.26,West,276,0.0,0.0,83,0.00,,,0.00,,2013-04-12 17:02:00,
2013-04-12 09:12:00,-3.0,-7.0,30.26,West,276,0.0,0.0,83,0.00,,,0.00,,2013-04-12 17:12:00,
2013-04-12 09:22:00,0.0,-5.0,30.26,West,276,0.0,0.0,79,0.00,,,0.00,,2013-04-12 17:22:00,
2013-04-12 09:32:00,2.0,-4.0,30.26,West,276,0.0,0.0,77,0.00,,,0.00,,2013-04-12 17:32:00,
2013-04-12 09:44:00,2.0,-4.0,30.26,West,276,0.0,0.0,77,0.00,,,0.00,,2013-04-12 17:44:00,
2013-04-12 10:06:00,3.0,-4.0,30.27,West,276,0.0,2.0,73,0.00,,,0.00,,2013-04-12 18:06:00,
2013-04-12 10:14:00,3.0,-4.0,30.27,West,276,0.0,2.0,73,0.00,,,0.00,,2013-04-12 18:14:00,
2013-04-12 10:27:00,4.0,-3.0,30.27,West,276,0.0,2.0,73,0.00,,,0.00,,2013-04-12 18:27:00,
2013-04-12 11:26:00,7.0,-2.0,30.27,East,93,0.0,5.0,67,0.00,,,0.00,,2013-04-12 19:26:00,
2013-04-12 11:32:00,8.0,-1.0,30.27,ESE,105,1.0,5.0,66,0.00,,,0.00,,2013-04-12 19:32:00,
2013-04-12 11:42:00,8.0,-1.0,30.27,ESE,105,1.0,5.0,66,0.00,,,0.00,,2013-04-12 19:42:00,
2013-04-12 11:52:00,9.0,0.0,30.27,NNE,29,1.0,3.0,65,0.00,,,0.00,,2013-04-12 19:52:00,
2013-04-12 12:02:00,10.0,0.0,30.27,East,90,0.0,3.0,63,0.00,,,0.00,,2013-04-12 20:02:00,
2013-04-12 12:12:00,10.0,0.0,30.27,East,90,0.0,3.0,63,0.00,,,0.00,,2013-04-12 20:12:00,
2013-04-12 12:22:00,10.0,-1.0,30.27,ESE,122,1.0,4.0,61,0.00,,,0.00,,2013-04-12 20:22:00,
2013-04-12 12:32:00,11.0,0.0,30.27,East,84,0.0,5.0,61,0.00,,,0.00,,2013-04-12 20:32:00,
2013-04-12 12:42:00,11.0,0.0,30.27,East,84,0.0,5.0,61,0.00,,,0.00,,2013-04-12 20:42:00,
2013-04-12 12:52:00,12.0,1.0,30.26,ESE,111,1.0,4.0,60,0.00,,,0.00,,2013-04-12 20:52:00,
2013-04-12 13:02:00,12.0,1.0,30.26,East,98,1.0,4.0,60,0.00,,,0.00,,2013-04-12 21:02:00,
2013-04-12 13:11:00,12.0,1.0,30.26,East,98,1.0,4.0,60,0.00,,,0.00,,2013-04-12 21:11:00,
2013-04-12 13:21:00,13.0,1.0,30.25,East,80,1.0,6.0,58,0.00,,,0.00,,2013-04-12 21:21:00,
2013-04-12 13:32:00,13.0,1.0,30.25,ENE,76,1.0,4.0,58,0.00,,,0.00,,2013-04-12 21:32:00,
2013-04-12 13:42:00,13.0,1.0,30.25,ENE,76,1.0,4.0,58,0.00,,,0.00,,2013-04-12 21:42:00,
2013-04-12 13:52:00,15.0,3.0,30.24,SE,130,0.0,3.0,58,0.00,,,0.00,,2013-04-12 21:52:00,
2013-04-12 14:02:00,15.0,3.0,30.25,East,80,1.0,5.0,57,0.01,,,0.01,,2013-04-12 22:02:00,
2013-04-12 14:12:00,15.0,3.0,30.25,East,80,1.0,5.0,57,0.01,,,0.01,,2013-04-12 22:12:00,
2013-04-12 14:22:00,15.0,3.0,30.24,East,80,1.0,5.0,58,0.01,,,0.01,,2013-04-12 22:22:00,
2013-04-12 14:32:00,16.0,3.0,30.24,East,84,1.0,5.0,57,0.02,,,0.02,,2013-04-12 22:32:00,
2013-04-12 14:42:00,16.0,3.0,30.24,East,84,1.0,5.0,57,0.02,,,0.02,,2013-04-12 22:42:00,
2013-04-12 14:52:00,17.0,4.0,30.24,East,83,1.0,4.0,57,0.02,,,0.02,,2013-04-12 22:52:00,
2013-04-12 15:03:00,17.0,4.0,30.24,East,101,1.0,6.0,56,0.01,,,0.02,,2013-04-12 23:03:00,
2013-04-12 15:12:00,17.0,4.0,30.24,East,101,1.0,6.0,56,0.01,,,0.02,,2013-04-12 23:12:00,
2013-04-12 15:22:00,17.0,4.0,30.24,East,88,1.0,5.0,57,0.01,,,0.02,,2013-04-12 23:22:00,
2013-04-12 15:32:00,18.0,5.0,30.23,ENE,75,1.0,6.0,56,0.01,,,0.03,,2013-04-12 23:32:00,
2013-04-12 15:42:00,18.0,5.0,30.23,ENE,75,1.0,6.0,56,0.01,,,0.03,,2013-04-12 23:42:00,
2013-04-12 15:52:00,18.0,6.0,30.23,ESE,116,2.0,7.0,58,0.01,,,0.03,,2013-04-12 23:52:00,
2013-04-12 16:02:00,19.0,6.0,30.22,East,86,1.0,5.0,55,0.01,,,0.03,,2013-04-13 00:02:00,
2013-04-12 16:12:00,19.0,6.0,30.22,East,86,1.0,5.0,55,0.01,,,0.03,,2013-04-13 00:12:00,
2013-04-12 16:22:00,19.0,5.0,30.22,East,83,3.0,6.0,53,0.01,,,0.03,,2013-04-13 00:22:00,
2013-04-12 16:32:00,19.0,6.0,30.22,East,89,2.0,7.0,55,0.00,,,0.03,,2013-04-13 00:32:00,
2013-04-12 16:42:00,19.0,6.0,30.22,East,89,2.0,7.0,55,0.00,,,0.03,,2013-04-13 00:42:00,
2013-04-12 16:52:00,20.0,6.0,30.22,East,88,2.0,7.0,55,0.01,,,0.04,,2013-04-13 00:52:00,
2013-04-12 17:02:00,20.0,6.0,30.21,East,94,1.0,6.0,55,0.01,,,0.04,,2013-04-13 01:02:00,
2013-04-12 17:12:00,20.0,6.0,30.21,East,94,1.0,6.0,55,0.01,,,0.04,,2013-04-13 01:12:00,
2013-04-12 17:22:00,20.0,5.0,30.21,East,87,1.0,5.0,52,0.01,,,0.04,,2013-04-13 01:22:00,
2013-04-12 17:32:00,20.0,6.0,30.21,East,89,1.0,5.0,55,0.01,,,0.04,,2013-04-13 01:32:00,
2013-04-12 17:42:00,20.0,6.0,30.21,East,89,1.0,5.0,55,0.01,,,0.04,,2013-04-13 01:42:00,
2013-04-12 17:52:00,20.0,7.0,30.21,NE,48,0.0,3.0,56,0.00,,,0.04,,2013-04-13 01:52:00,
2013-04-12 18:02:00,20.0,6.0,30.21,East,87,0.0,5.0,53,0.00,,,0.04,,2013-04-13 02:02:00,
2013-04-12 18:12:00,20.0,6.0,30.21,East,87,0.0,5.0,53,0.00,,,0.04,,2013-04-13 02:12:00,
2013-04-12 18:22:00,20.0,6.0,30.21,SSE,157,0.0,3.0,53,0.00,,,0.04,,2013-04-13 02:22:00,
2013-04-12 18:32:00,20.0,6.0,30.21,ENE,78,0.0,5.0,53,0.00,,,0.04,,2013-04-13 02:32:00,
2013-04-12 18:42:00,20.0,6.0,30.21,ENE,78,0.0,5.0,53,0.00,,,0.04,,2013-04-13 02:42:00,
2013-04-12 18:52:00,20.0,5.0,30.21,SSE,157,0.0,4.0,52,0.00,,,0.04,,2013-04-13 02:52:00,
2013-04-12 19:02:00,20.0,5.0,30.21,SE,126,1.0,5.0,52,0.00,,,0.04,,2013-04-13 03:02:00,
2013-04-12 19:12:00,20.0,5.0,30.21,SE,126,1.0,5.0,52,0.00,,,0.04,,2013-04-13 03:12:00,
2013-04-12 19:22:00,20.0,5.0,30.21,East,91,0.0,4.0,52,0.00,,,0.04,,2013-04-13 03:22:00,
2013-04-12 19:33:00,20.0,5.0,30.21,ESE,106,0.0,1.0,51,0.00,,,0.04,,2013-04-13 03:33:00,
2013-04-12 19:42:00,20.0,5.0,30.21,ESE,106,0.0,1.0,51,0.00,,,0.04,,2013-04-13 03:42:00,
2013-04-12 19:52:00,20.0,5.0,30.21,ENE,59,0.0,3.0,51,0.00,,,0.04,,2013-04-13 03:52:00,
2013-04-12 20:02:00,19.0,5.0,30.21,East,98,0.0,2.0,53,0.00,,,0.04,,2013-04-13 04:02:00,
2013-04-12 20:12:00,19.0,5.0,30.21,East,98,0.0,2.0,53,0.00,,,0.04,,2013-04-13 04:12:00,
2013-04-12 20:22:00,18.0,4.0,30.22,ESE,123,0.0,2.0,53,0.00,,,0.04,,2013-04-13 04:22:00,
2013-04-12 20:33:00,18.0,5.0,30.22,SE,125,0.0,1.0,55,0.00,,,0.04,,2013-04-13 04:33:00,
2013-04-12 20:42:00,18.0,5.0,30.22,SE,125,0.0,1.0,55,0.00,,,0.04,,2013-04-13 04:42:00,
2013-04-12 20:53:00,18.0,5.0,30.22,ESE,105,0.0,1.0,55,0.00,,,0.04,,2013-04-13 04:53:00,
2013-04-12 21:02:00,17.0,4.0,30.23,ESE,105,0.0,1.0,56,0.00,,,0.04,,2013-04-13 05:02:00,
2013-04-12 21:12:00,17.0,4.0,30.23,ESE,105,0.0,1.0,56,0.00,,,0.04,,2013-04-13 05:12:00,
2013-04-12 21:22:00,16.0,4.0,30.23,ESE,105,0.0,0.0,59,0.00,,,0.04,,2013-04-13 05:22:00,
2013-04-12 21:32:00,15.0,4.0,30.24,ESE,105,0.0,0.0,61,0.00,,,0.04,,2013-04-13 05:32:00,
2013-04-12 21:42:00,15.0,4.0,30.24,ESE,105,0.0,0.0,61,0.00,,,0.04,,2013-04-13 05:42:00,
2013-04-12 21:52:00,14.0,4.0,30.24,ESE,105,0.0,0.0,65,0.00,,,0.04,,2013-04-13 05:52:00,
2013-04-12 22:02:00,13.0,4.0,30.25,ESE,105,0.0,0.0,68,0.00,,,0.04,,2013-04-13 06:02:00,
2013-04-12 22:12:00,13.0,4.0,30.25,ESE,105,0.0,0.0,68,0.00,,,0.04,,2013-04-13 06:12:00,
2013-04-12 22:22:00,12.0,4.0,30.25,ESE,105,0.0,0.0,70,0.00,,,0.04,,2013-04-13 06:22:00,
2013-04-12 22:43:00,11.0,3.0,30.26,ESE,105,0.0,0.0,71,0.00,,,0.04,,2013-04-13 06:43:00,
2013-04-12 22:53:00,10.0,3.0,30.26,ESE,105,0.0,0.0,71,0.00,,,0.04,,2013-04-13 06:53:00,
2013-04-12 23:03:00,10.0,2.0,30.27,ESE,105,0.0,1.0,69,0.00,,,0.04,,2013-04-13 07:03:00,
2013-04-12 23:13:00,10.0,2.0,30.27,ESE,105,0.0,1.0,69,0.00,,,0.04,,2013-04-13 07:13:00,
2013-04-12 23:22:00,10.0,2.0,30.27,ESE,105,0.0,1.0,69,0.00,,,0.04,,2013-04-13 07:22:00,
2013-04-12 23:33:00,10.0,2.0,30.27,ESE,105,0.0,1.0,70,0.00,,,0.04,,2013-04-13 07:33:00,
2013-04-12 23:43:00,10.0,2.0,30.27,ESE,105,0.0,1.0,70,0.00,,,0.04,,2013-04-13 07:43:00,
2013-04-12 23:55:00,8.0,1.0,30.27,ESE,105,0.0,1.0,71,0.00,,,0.04,,2013-04-13 07:55:00,